Theta_e
354 355 355 354 357 354 355 353 355 356 357 356 356 356 357 356 357 356 356 356 355 353 355 352 356 355 354 351 351 354 356 357 356 353 360 361 361 365 368 366 364 362 362 361 360 361 360 358 358 359 358 358 358 358 359 360 359 360 361 361 361 362 362 362 362 362 362 362 362 360 357 356 356 356 356 355 357 358 361 360 359 359 359 358 358
354 354 353 355 357 357 357 357 357 358 356 355 356 357 356 356 355 355 354 356 355 354 355 350 350 353 353 350 348 349 355 353 350 346 358 363 362 364 368 367 365 364 364 363 361 362 361 359 359 360 360 359 358 359 359 360 360 360 361 362 361 362 362 363 363 362 362 362 363 361 357 357 356 356 355 355 355 357 359 360 360 360 360 359 358
354 355 357 356 357 358 355 357 355 355 356 357 358 358 358 355 355 356 357 357 356 355 357 352 352 353 355 352 347 349 350 349 345 344 348 362 361 363 365 368 367 365 365 364 362 362 362 361 360 361 361 360 360 360 360 360 361 362 362 362 361 362 362 362 363 362 362 362 363 362 358 357 357 356 355 355 355 355 356 358 360 360 360 360 360
355 355 355 357 356 357 355 355 355 357 357 359 358 358 358 357 357 358 358 359 359 360 357 352 350 347 349 348 347 348 345 348 355 346 351 362 363 361 364 364 367 366 365 364 363 363 363 363 361 361 362 362 361 361 360 361 361 362 362 363 363 363 363 362 362 361 363 363 363 362 359 357 357 356 356 355 355 355 355 355 358 359 360 360 359
357 356 359 356 356 355 356 357 357 358 359 360 358 360 357 358 359 360 361 359 357 356 353 351 348 352 349 345 353 344 344 352 359 351 347 353 357 361 360 363 363 367 366 364 364 363 363 363 363 362 362 362 362 361 361 362 363 363 363 363 363 363 364 364 363 363 363 362 363 362 361 356 357 358 357 356 355 354 355 354 355 358 360 360 360
358 356 358 357 357 355 355 356 359 359 361 358 358 359 357 357 355 356 357 355 352 353 348 347 343 349 348 345 346 348 344 344 354 351 351 345 349 356 359 360 361 363 362 366 365 364 363 364 363 363 363 363 363 363 363 364 364 363 363 364 364 364 363 364 364 364 363 361 363 360 361 358 357 357 356 356 355 354 353 353 354 356 358 360 359
362 361 357 358 357 356 357 356 357 359 359 358 358 357 358 355 356 353 352 352 351 351 346 349 353 347 355 358 350 344 350 345 347 350 344 346 353 349 354 356 358 358 360 361 366 364 365 365 365 364 363 364 363 363 364 364 364 364 364 364 365 365 365 364 364 364 364 364 363 363 361 360 357 358 356 356 355 355 353 353 353 355 357 360 359
363 365 357 359 358 358 358 361 359 359 358 358 358 357 357 355 355 352 350 348 350 347 350 351 347 345 346 351 353 351 347 350 346 348 347 350 348 353 356 361 360 362 361 360 361 363 367 366 365 365 364 364 364 365 365 365 365 364 364 364 365 365 365 364 365 365 365 364 364 364 362 361 359 358 357 355 355 354 354 353 354 353 355 356 357
361 362 363 358 359 357 357 360 361 359 360 358 357 356 354 351 354 353 351 356 347 343 344 352 345 345 345 343 344 352 345 347 355 354 352 357 351 355 353 354 365 358 365 366 367 364 366 368 367 366 365 365 365 365 365 366 365 364 365 365 366 366 365 366 365 365 365 365 365 365 363 362 359 359 357 355 355 355 354 354 354 353 355 356 356
360 361 364 359 358 358 357 358 360 363 362 356 356 354 353 350 350 352 353 356 357 345 343 345 345 343 347 342 350 344 346 347 352 360 354 352 354 352 361 359 360 353 360 361 361 370 365 367 368 366 366 366 366 366 366 366 366 366 367 366 366 366 366 366 366 366 366 365 365 365 364 362 362 359 358 356 356 356 354 354 355 356 357 357 357
360 362 363 361 360 359 359 359 362 360 358 356 356 353 349 348 344 357 360 356 358 358 358 354 343 341 339 340 344 346 350 350 350 349 354 350 356 357 358 362 358 360 360 363 365 365 370 365 364 364 361 367 367 367 368 367 367 367 368 368 368 367 367 367 367 367 367 366 366 365 365 364 363 359 359 357 356 356 355 354 354 355 356 357 357
361 362 363 363 359 358 359 358 361 359 355 352 351 353 350 353 348 350 359 361 363 358 356 356 349 344 349 349 345 344 346 354 353 351 359 354 359 358 358 360 363 361 357 358 364 356 365 368 369 365 365 367 369 368 368 369 369 368 369 369 369 369 368 368 367 367 367 366 367 366 366 365 362 361 359 359 356 356 356 354 354 354 355 355 356
361 362 362 361 362 363 360 361 361 358 356 353 353 348 358 358 369 371 353 360 358 353 351 353 356 348 366 348 348 351 349 347 349 353 352 358 364 358 361 361 361 359 363 359 359 358 360 366 366 367 367 369 370 370 369 369 370 370 369 370 370 370 370 369 369 367 368 367 366 366 365 365 363 363 360 360 357 356 356 356 354 353 353 355 355
361 362 362 360 360 359 360 361 360 357 358 357 358 367 361 360 359 364 361 356 355 352 350 351 352 344 345 341 353 350 352 346 345 348 349 354 360 354 360 355 359 361 360 365 363 357 356 362 367 364 367 375 370 367 366 368 369 371 370 371 371 372 370 370 369 368 368 369 367 367 365 365 364 363 361 359 359 356 357 356 355 354 353 354 355
361 362 360 359 362 359 358 359 358 358 360 361 361 360 364 357 361 360 352 354 357 353 355 355 350 348 353 352 344 339 348 346 347 352 354 354 361 352 355 353 354 355 355 357 358 358 357 361 361 367 369 370 368 371 370 367 367 368 371 372 372 373 372 370 370 369 368 369 367 367 367 365 364 364 362 360 359 358 357 357 356 355 354 353 353
360 360 360 361 361 359 356 355 358 360 362 363 359 359 361 361 356 356 359 350 348 352 357 354 356 352 347 343 346 341 340 344 347 349 350 358 357 348 352 350 351 350 353 352 352 357 359 360 359 362 368 365 368 371 372 370 369 371 371 372 373 373 373 371 370 370 369 369 368 367 368 367 365 364 363 361 361 359 357 357 357 355 355 353 354
358 359 359 362 362 361 357 356 356 359 358 361 361 356 356 358 360 359 359 356 348 349 355 350 349 362 350 346 343 341 339 345 344 352 347 352 349 347 348 347 346 348 351 350 351 351 352 353 359 362 368 366 368 367 368 366 371 371 370 372 373 375 374 372 370 370 369 369 369 368 368 367 366 364 364 362 362 360 358 356 358 356 354 355 354
361 360 360 361 360 360 358 354 355 359 360 357 358 357 358 356 358 359 357 357 357 351 346 350 347 355 351 366 360 346 348 345 346 340 361 362 347 343 345 346 346 347 350 349 348 349 362 360 364 363 361 361 367 369 367 370 375 373 373 372 373 375 374 373 371 370 370 369 369 368 368 367 366 365 364 363 362 361 359 356 358 357 356 354 355
358 359 358 361 360 359 361 358 355 358 362 362 360 353 352 353 357 358 359 360 361 358 350 348 353 350 348 347 347 352 357 352 342 345 342 354 347 344 344 346 346 345 347 346 346 347 350 353 353 356 359 362 365 366 369 369 370 368 371 370 371 372 372 373 372 371 370 370 369 368 369 368 366 365 365 364 362 361 360 358 358 358 356 355 355
357 359 357 359 360 360 361 359 356 355 360 359 357 354 356 357 361 360 366 366 363 358 353 352 351 354 348 348 344 344 347 346 344 341 347 342 345 347 346 346 352 346 345 345 345 349 348 353 353 358 357 360 367 366 364 364 366 368 370 371 368 369 370 370 372 371 370 370 369 369 369 368 367 366 365 364 363 361 359 359 358 358 356 356 355
360 357 358 357 361 359 359 360 356 357 362 358 357 355 354 356 362 363 362 364 360 361 364 364 350 350 361 357 353 353 347 347 350 347 349 343 340 340 342 343 346 346 361 354 349 351 359 359 353 355 360 364 364 366 364 362 366 370 368 371 370 367 370 368 371 371 370 370 369 369 369 368 367 366 365 365 364 362 360 359 358 358 357 356 356
357 359 359 359 359 360 356 354 353 354 358 357 357 356 359 362 360 357 360 362 364 362 361 363 358 353 353 356 358 355 348 350 343 343 349 356 348 345 341 346 345 352 351 348 347 348 352 352 354 357 361 361 360 360 361 362 372 367 364 372 370 370 369 370 371 370 371 370 370 370 369 368 368 367 366 365 364 363 361 359 359 358 358 357 357
357 357 357 356 358 359 355 354 352 359 360 357 357 354 356 360 357 359 362 363 361 360 358 362 359 362 348 354 357 348 350 345 348 349 341 340 348 346 340 342 347 343 346 351 359 352 353 350 356 356 365 363 360 358 358 363 370 369 369 370 370 370 369 370 370 370 371 371 371 370 370 369 368 367 366 366 365 364 363 360 358 358 358 358 357
356 355 355 356 357 357 357 356 356 356 357 359 357 357 357 358 358 362 361 365 367 364 360 355 351 360 355 349 350 349 349 350 347 352 350 345 346 350 347 345 342 342 346 351 357 348 354 355 352 354 357 359 361 364 363 366 370 376 370 370 371 371 369 371 372 370 369 371 371 370 370 369 369 368 367 366 365 364 364 362 360 359 358 357 358
352 352 354 355 357 358 356 354 355 361 361 361 364 368 368 359 359 357 359 362 363 364 364 355 352 356 357 348 345 348 347 353 351 355 349 356 351 351 352 344 346 347 351 348 349 348 348 350 352 352 355 358 361 368 364 367 369 374 369 368 370 370 368 372 371 372 371 369 370 371 370 370 369 369 368 367 366 365 364 364 362 360 358 357 356
349 352 353 355 354 356 357 356 358 362 364 366 365 364 364 363 362 358 355 359 363 364 367 358 359 353 349 347 347 354 357 353 355 355 348 345 346 347 350 349 341 343 355 353 352 358 353 356 352 357 357 360 358 365 367 366 365 370 369 364 366 367 368 372 368 370 370 371 370 370 371 370 370 370 368 367 367 366 365 364 363 361 360 358 357
351 354 356 355 354 356 357 355 358 360 362 363 359 360 362 360 363 363 359 361 359 359 360 356 350 351 352 358 362 349 349 358 351 347 352 345 346 349 346 339 339 340 351 351 347 352 348 355 365 357 355 363 378 371 373 369 368 369 369 364 362 363 365 367 372 369 371 370 370 370 371 369 368 368 368 368 367 367 366 365 364 363 362 360 359
355 355 354 354 354 354 357 353 358 359 358 361 361 357 362 359 358 362 359 356 356 357 357 353 350 351 359 355 358 350 354 347 347 348 348 350 359 356 352 344 341 340 342 341 343 356 351 359 358 362 360 366 367 374 370 368 363 365 367 364 365 361 363 364 369 371 371 370 371 371 371 370 367 368 368 367 367 367 366 366 365 364 362 361 361
352 354 352 354 354 354 353 352 355 357 356 360 359 364 364 360 357 360 359 355 357 355 354 353 354 350 352 349 354 351 351 352 349 349 359 355 353 356 352 346 348 352 343 345 350 349 352 345 354 365 359 361 373 365 366 368 365 362 361 361 366 362 359 361 365 367 369 370 371 371 370 370 369 368 367 367 367 367 367 367 366 365 364 363 362
352 349 351 352 354 357 353 354 352 352 352 352 355 362 364 362 360 363 359 361 364 361 358 356 353 356 358 351 349 349 350 350 348 347 353 356 350 353 349 348 352 352 351 346 348 348 350 355 349 360 369 368 365 366 364 365 366 360 360 357 362 365 357 358 362 362 364 366 368 370 370 370 370 369 367 367 367 366 366 367 366 366 366 365 364
352 355 357 351 352 353 355 353 354 353 354 351 354 359 361 361 360 362 360 364 363 361 361 359 353 350 352 351 356 356 353 348 361 350 354 353 351 350 349 348 351 351 351 352 349 350 347 348 352 354 361 358 358 362 363 369 367 361 360 360 362 364 358 357 359 359 360 362 364 367 370 370 370 370 369 368 368 368 368 368 367 366 365 365 364
354 353 353 351 352 349 349 349 349 350 349 349 351 354 359 358 358 358 359 362 362 361 358 357 354 351 353 352 361 361 360 354 354 348 350 352 354 349 347 351 352 358 357 362 353 359 355 348 347 352 355 359 361 357 357 364 370 361 364 367 384 360 361 360 356 356 357 358 360 362 363 366 368 368 368 368 369 369 368 368 368 368 367 365 365
356 354 350 351 351 352 350 351 349 351 352 351 350 352 356 359 357 358 358 361 358 359 361 358 353 352 355 356 359 354 356 352 351 351 350 355 351 352 354 350 348 356 356 353 350 349 353 356 353 349 350 355 359 366 361 355 361 365 361 367 373 367 364 365 361 352 354 355 356 357 357 360 363 366 367 367 367 368 368 368 368 368 367 367 366
360 357 356 351 350 350 351 351 350 349 353 354 352 352 352 355 355 353 355 362 361 359 360 360 358 351 357 358 357 353 354 352 350 348 348 346 350 347 348 345 343 348 356 350 351 348 350 356 352 358 350 355 352 357 359 357 364 363 361 361 372 370 366 367 366 359 350 351 352 352 353 354 357 360 363 365 366 366 366 367 367 365 363 363 361
360 359 361 356 360 360 359 355 353 350 353 353 352 351 350 351 351 351 353 358 357 356 355 356 356 355 353 356 353 354 352 351 351 349 349 347 347 354 345 345 344 344 348 352 351 350 347 352 359 351 348 349 347 354 356 358 364 366 363 361 357 365 364 360 361 360 349 349 349 349 349 349 350 353 355 358 361 363 364 365 362 355 353 354 350
361 360 360 359 361 360 358 355 355 354 352 352 351 351 351 350 350 351 352 356 355 355 353 352 352 353 352 352 351 352 353 352 351 349 351 349 347 347 346 345 345 345 348 359 360 364 356 357 356 354 361 359 360 360 373 370 360 364 359 359 358 356 363 364 357 358 354 347 349 348 347 346 346 347 348 350 354 357 356 351 349 347 345 345 345
362 363 364 363 358 359 354 351 350 353 353 351 353 352 352 352 351 350 350 353 353 355 355 354 355 353 352 351 352 352 353 350 350 349 350 350 347 346 344 346 347 349 347 354 358 356 357 351 357 362 364 361 363 365 365 356 360 359 366 362 354 354 361 359 358 356 352 347 348 347 346 346 345 344 343 344 344 345 345 344 343 342 341 341 341
358 361 362 361 359 355 354 353 351 350 352 351 354 353 352 352 351 352 353 353 352 356 356 353 352 353 351 352 351 351 351 350 349 352 352 349 349 348 347 347 349 352 353 355 355 362 355 357 357 358 364 361 362 360 364 362 356 354 356 358 361 361 358 355 359 360 356 357 354 352 345 345 343 341 342 342 340 340 340 340 340 339 338 337 337
359 360 360 360 359 354 354 353 352 353 352 350 354 354 352 351 350 349 351 351 352 353 352 353 354 354 351 350 350 349 350 352 351 350 349 348 347 350 352 359 355 356 354 360 363 358 357 357 357 356 354 358 357 354 361 361 356 354 349 351 353 362 364 363 363 363 362 358 356 353 353 351 350 347 341 338 338 338 338 338 338 339 339 336 333
357 357 357 357 358 356 355 354 355 354 356 358 353 353 354 352 350 348 349 349 349 350 351 353 354 352 351 350 349 350 351 354 352 350 349 348 350 348 348 352 355 360 355 355 358 359 355 349 350 352 354 354 357 353 357 361 359 359 358 355 352 356 359 364 365 361 368 363 362 358 354 352 351 348 343 340 339 339 338 338 338 339 340 338 334
355 355 356 355 354 355 356 354 353 354 354 354 356 354 354 354 353 349 348 348 348 347 347 349 351 352 351 351 351 351 355 366 364 361 357 355 346 348 355 362 361 355 357 360 361 359 357 355 353 354 353 353 355 355 355 355 353 351 362 358 353 355 358 359 362 366 366 364 365 362 365 361 359 359 356 354 352 343 342 340 342 341 341 339 335
354 354 354 354 354 353 354 355 353 353 352 354 357 361 358 357 356 352 350 349 348 347 348 346 346 350 350 350 351 358 361 364 364 365 366 371 360 358 363 368 367 363 362 357 356 358 358 356 351 351 349 347 345 348 349 349 350 353 349 350 349 354 357 355 358 365 372 369 367 363 363 369 369 365 366 361 361 359 354 350 346 345 342 337 335
353 353 352 350 351 352 352 351 352 351 352 352 354 346 347 355 356 354 351 352 353 354 349 349 347 345 346 350 353 357 364 366 365 367 366 370 370 367 366 358 359 366 362 355 356 358 357 353 354 350 346 345 347 348 346 346 350 349 351 356 355 355 353 351 348 364 377 371 361 358 355 362 364 356 355 359 362 361 361 361 348 342 339 338 336
353 351 349 348 349 350 350 352 352 349 348 351 343 342 344 347 359 354 352 350 349 349 348 346 345 345 347 347 350 352 355 356 354 360 368 368 367 368 368 366 363 362 360 362 361 358 355 351 351 349 348 346 350 355 351 349 354 355 359 361 358 358 355 353 354 352 364 367 359 354 351 356 362 357 354 356 358 360 359 349 343 341 340 338 336
352 351 348 348 348 349 351 349 349 351 351 351 339 341 341 341 345 361 352 350 348 348 347 348 354 359 352 348 349 350 347 360 363 353 362 367 367 364 365 365 366 363 348 344 349 352 352 351 349 348 350 353 351 355 360 359 363 354 357 356 357 358 357 355 356 356 361 366 359 354 349 353 354 349 348 351 353 355 357 345 341 340 337 337 337
349 348 347 348 348 348 347 348 350 351 349 349 337 338 339 339 341 350 360 360 363 362 361 358 355 358 362 365 360 355 352 359 360 357 358 361 365 363 362 363 360 360 361 351 347 347 352 348 346 345 349 354 351 355 364 366 360 357 356 355 358 356 352 350 354 355 362 365 357 353 347 349 351 349 347 351 356 357 356 346 339 339 338 335 334
348 348 349 348 348 348 348 349 347 347 348 342 334 335 335 336 338 350 356 358 358 359 359 360 362 361 361 361 361 360 364 361 360 353 353 354 355 358 358 353 352 351 351 351 351 353 352 350 347 347 347 349 350 350 353 357 357 360 364 364 359 354 351 352 350 354 356 360 357 354 344 346 351 348 347 349 352 353 355 343 337 338 339 337 333
352 351 350 349 347 346 346 345 346 345 347 337 334 332 332 333 340 351 354 355 356 356 357 359 361 362 364 361 362 364 360 362 359 357 358 356 353 349 348 347 347 349 351 354 343 344 355 356 357 355 353 353 349 359 363 362 362 362 361 364 357 353 350 346 344 348 348 355 359 353 347 346 351 348 347 352 353 352 354 354 343 339 336 335 334
350 348 347 347 348 344 344 346 346 346 347 340 330 329 330 331 342 351 354 353 354 353 354 358 362 362 361 359 358 362 360 358 353 338 341 355 351 348 347 345 347 350 350 351 346 342 341 339 337 334 332 332 333 332 331 333 346 355 357 353 351 353 346 341 341 342 342 347 351 358 351 346 349 349 347 349 350 350 351 352 354 341 335 335 334
349 348 346 345 347 348 346 343 344 344 347 343 328 325 326 328 346 351 353 353 353 355 357 359 363 361 358 357 358 360 358 358 346 338 339 353 352 351 348 347 345 345 346 348 350 357 343 340 339 337 336 334 333 332 333 333 332 342 347 344 348 351 348 346 342 343 345 347 349 360 351 347 349 350 348 349 349 350 351 352 352 349 339 333 328
352 351 348 347 346 346 347 345 345 344 346 345 328 325 323 324 341 352 353 353 352 352 355 358 358 359 358 358 357 356 356 356 338 336 336 353 351 352 349 346 344 343 345 349 352 352 353 353 356 359 357 351 355 356 356 349 343 347 348 349 351 350 347 347 347 345 343 344 349 359 349 346 346 347 346 342 337 343 350 350 350 351 352 352 352
Wind_Speed
7 6 6 7 6 7 7 6 7 7 6 6 6 6 5 5 5 5 5 4 5 6 4 5 4 4 4 5 6 4 3 3 2 4 5 6 6 10 15 15 13 12 10 10 9 8 7 7 6 6 5 4 2 1 2 3 2 2 2 2 2 3 3 4 5 5 6 6 6 6 7 6 6 6 5 4 6 5 7 6 5 6 5 5 5
6 6 7 6 7 7 7 7 6 5 6 6 6 5 5 5 6 5 6 5 5 4 4 6 7 6 5 4 6 6 3 4 6 6 9 7 7 8 16 15 14 12 11 10 10 9 8 7 7 6 6 5 3 3 3 3 3 3 3 3 2 1 2 3 4 4 5 5 5 6 6 6 6 6 6 5 3 6 7 6 6 5 5 4 4
6 6 6 7 7 5 6 6 5 5 5 4 5 5 5 5 5 5 4 4 4 4 2 4 6 6 5 6 5 7 7 9 8 6 8 7 6 7 10 15 14 13 12 11 10 9 8 8 8 7 7 6 4 4 4 4 5 4 3 2 2 2 0 1 2 3 3 4 5 5 5 6 6 6 6 5 4 4 5 4 5 5 4 4 4
7 8 6 7 6 4 5 6 6 6 6 5 5 4 5 4 5 5 5 4 4 3 3 5 6 4 5 7 6 2 5 3 1 3 4 8 8 6 6 8 13 13 12 11 10 9 9 8 8 8 8 6 6 5 5 5 4 4 4 4 3 2 2 0 1 2 2 3 4 5 5 5 6 6 6 6 5 4 3 2 5 5 4 4 4
8 8 7 7 6 6 6 6 6 5 5 6 7 5 5 4 3 3 3 4 4 5 7 6 6 3 5 5 2 6 5 3 2 2 1 8 7 7 6 6 7 11 12 12 11 10 9 8 8 8 7 7 6 6 5 5 5 4 5 5 4 3 3 2 0 2 3 3 4 4 4 4 5 5 5 5 5 4 4 2 3 4 4 4 4
5 7 6 7 7 7 6 5 4 6 4 4 5 5 4 4 5 5 5 6 6 6 5 6 4 5 7 7 4 5 5 2 1 2 2 7 6 7 7 6 5 5 7 12 12 11 10 10 9 9 8 7 7 7 7 6 6 5 5 5 5 4 3 3 2 2 2 3 3 3 4 3 4 4 5 5 5 4 3 4 2 3 4 3 4
4 5 7 6 7 6 5 5 5 5 4 5 6 5 4 5 5 6 6 5 6 7 6 6 2 6 3 1 2 3 3 4 2 1 4 3 3 5 6 7 7 6 6 5 10 13 12 11 11 10 9 9 8 8 8 8 7 7 6 6 6 5 5 4 3 2 3 4 4 5 4 5 3 4 4 5 5 4 4 3 3 2 4 5 4
4 3 7 5 5 5 5 4 6 6 7 7 6 5 5 6 6 7 5 8 5 6 4 3 7 5 4 3 1 5 3 4 4 5 7 7 8 2 3 3 3 4 5 6 5 7 13 12 11 11 10 10 9 9 9 9 9 8 8 7 7 6 5 5 4 3 3 5 4 5 4 5 4 4 5 4 4 5 4 4 3 2 4 3 3
4 4 4 6 4 4 5 6 5 4 4 5 5 5 6 7 6 7 5 4 6 7 5 3 4 4 5 4 4 3 4 4 1 1 8 2 5 5 3 3 3 5 3 3 3 4 10 13 11 11 11 10 10 10 10 9 10 9 9 8 8 7 6 6 6 5 5 5 5 5 5 5 5 5 5 4 3 3 5 5 4 3 2 2 2
5 4 3 4 5 4 5 7 6 4 4 6 5 6 6 6 6 6 4 3 3 3 4 5 4 4 3 5 3 4 8 6 4 2 4 5 7 5 1 1 2 1 1 1 3 3 4 9 12 11 11 11 11 11 11 11 10 10 10 9 9 8 8 7 7 6 6 6 6 6 6 5 6 5 4 4 3 2 3 4 4 4 2 2 1
6 5 4 3 3 4 5 7 5 3 5 5 6 6 7 5 6 3 1 3 3 2 2 3 4 5 5 5 3 5 5 6 9 1 2 2 4 5 5 1 0 1 2 1 0 2 2 4 4 4 6 13 13 12 12 12 11 11 11 11 10 9 9 9 8 7 7 7 7 7 7 6 6 6 5 4 3 3 3 3 3 3 2 2 2
6 6 4 4 4 5 5 6 5 5 7 7 7 4 5 5 6 6 1 1 2 1 2 2 3 4 1 3 4 4 7 4 5 5 2 4 2 4 2 2 2 3 1 2 2 2 3 3 4 5 4 9 14 13 13 12 12 12 12 12 11 11 10 10 9 8 7 7 7 7 8 8 7 6 6 5 4 3 3 3 3 2 2 1 1
6 6 6 5 4 4 5 4 5 5 5 6 5 6 3 3 3 2 5 1 1 1 2 2 4 4 1 2 3 3 8 9 8 6 4 2 2 4 2 1 1 2 1 3 3 5 3 3 3 4 4 2 7 12 13 12 12 12 12 12 12 12 11 11 10 9 8 8 8 7 8 8 7 7 7 7 6 5 4 3 3 3 2 1 1
6 6 6 6 5 4 4 5 6 6 5 5 4 3 4 0 3 2 1 2 1 3 3 3 0 3 2 2 3 4 3 8 8 7 5 3 2 4 2 1 1 1 2 1 2 4 4 3 3 3 2 1 2 4 6 7 8 12 12 12 12 12 12 11 11 10 10 9 8 8 8 9 8 8 8 7 7 6 5 4 4 3 2 2 1
8 7 6 7 5 5 5 6 6 6 5 4 4 6 4 3 4 3 3 2 1 2 4 3 2 1 2 1 2 3 2 6 4 4 3 4 2 4 3 3 5 4 2 3 4 4 2 3 4 2 3 2 3 2 3 5 6 11 13 13 13 13 13 12 12 11 11 11 10 9 9 9 10 9 9 8 8 7 6 6 5 4 3 3 3
9 9 7 6 6 6 7 7 6 5 4 4 4 4 4 3 4 5 1 2 3 2 2 4 2 3 2 1 2 3 2 2 2 0 3 2 2 4 5 5 6 6 4 5 4 2 3 3 5 3 3 4 2 2 3 2 7 9 12 12 11 12 13 13 13 13 12 12 11 11 10 10 10 10 9 9 9 9 8 7 6 5 4 4 4
8 9 7 6 6 6 6 6 7 5 4 4 4 6 6 5 3 3 3 2 1 1 2 4 3 1 5 2 2 2 1 2 3 2 5 2 4 5 4 4 4 5 3 3 3 3 3 5 3 3 2 3 4 4 3 3 2 4 6 9 11 12 12 13 13 13 13 12 12 11 10 10 10 11 10 10 9 9 8 7 7 6 5 5 4
7 8 8 7 7 7 6 7 6 5 5 5 5 5 6 6 5 3 5 3 2 1 4 5 5 3 2 2 1 0 2 1 2 1 1 1 2 5 5 6 5 4 3 3 6 5 2 2 2 2 4 4 3 3 3 2 2 3 4 5 11 11 11 13 13 13 13 12 11 11 10 10 10 11 11 10 10 9 9 8 8 7 6 5 5
10 9 8 7 7 7 6 5 6 6 5 5 5 7 7 6 5 3 3 4 2 1 1 2 4 1 2 3 2 2 1 1 2 2 2 1 3 3 5 4 1 4 4 5 6 4 3 5 6 6 4 4 3 3 3 3 5 4 6 8 10 10 10 11 13 13 13 12 12 12 11 11 11 11 11 11 11 10 10 9 9 8 7 6 5
9 8 9 8 7 6 6 5 5 7 6 6 6 6 5 5 4 4 2 3 3 2 0 0 1 1 2 3 3 2 2 4 4 3 1 2 2 2 4 6 4 4 5 6 5 5 5 3 3 2 4 4 5 4 3 3 3 5 5 10 10 10 10 10 12 12 13 13 13 13 12 12 12 12 12 11 11 11 10 10 10 9 8 7 6
7 10 9 9 7 7 6 5 5 6 6 6 6 6 6 6 5 4 4 3 3 2 1 2 1 2 1 2 2 1 2 3 1 3 1 2 3 5 3 6 5 5 3 3 2 2 3 2 2 4 4 3 4 4 4 3 4 4 5 10 11 10 10 10 11 12 13 13 13 13 13 12 12 11 11 11 12 11 11 11 10 10 9 9 8
8 8 8 8 9 8 8 9 7 8 7 6 6 7 4 7 7 6 6 4 3 3 4 3 2 3 3 2 1 2 1 1 3 2 3 1 1 1 3 1 1 1 1 2 3 7 5 2 4 4 3 4 5 4 3 5 5 6 8 12 12 11 10 10 11 12 12 13 13 13 13 12 11 10 11 11 12 12 11 11 11 10 10 10 9
8 8 9 10 10 9 10 9 9 7 6 5 6 7 6 6 7 6 4 4 4 4 5 3 3 3 5 4 4 4 3 2 3 2 3 2 2 2 4 3 2 1 1 2 2 3 6 6 5 4 2 3 5 4 4 5 8 7 12 12 10 11 11 11 11 12 12 13 13 12 12 12 12 11 12 12 12 13 12 12 12 11 11 10 10
7 8 9 11 9 8 9 9 7 7 7 6 6 5 6 5 5 5 4 4 3 3 2 3 4 3 1 1 4 4 4 3 3 2 2 3 3 1 1 2 3 3 5 3 5 4 8 3 4 6 8 4 5 7 8 9 5 11 10 11 10 11 10 11 11 12 13 13 13 13 13 13 12 12 12 12 12 13 13 12 12 12 12 11 11
8 9 10 12 8 8 8 7 7 6 6 5 4 3 3 4 5 7 6 5 5 4 3 4 4 2 3 3 5 4 4 3 3 2 3 2 3 2 1 1 2 1 2 3 4 7 6 8 8 8 7 6 6 3 5 5 6 10 10 9 12 11 11 11 11 12 12 13 13 13 13 14 14 13 12 12 13 13 14 13 13 12 12 12 12
9 8 9 11 10 10 8 7 6 6 6 5 4 4 4 3 4 5 7 6 4 4 3 4 3 4 4 3 4 1 2 1 2 0 2 3 2 3 2 2 2 2 1 2 3 2 4 2 3 3 5 4 4 6 4 6 6 11 11 8 9 10 11 10 11 11 12 12 13 13 13 13 14 14 14 14 13 13 13 14 14 13 13 13 12
8 7 7 8 10 9 9 7 6 8 9 7 6 4 4 5 4 4 5 6 5 5 4 6 6 5 4 5 4 2 3 2 2 3 2 4 4 2 4 5 2 2 2 2 3 4 1 2 0 3 4 5 2 4 4 4 7 13 11 6 6 11 10 11 10 12 12 13 13 14 14 14 14 14 14 14 14 14 13 13 15 15 13 14 13
5 6 10 9 8 8 9 9 6 9 10 9 8 6 5 6 6 5 6 6 5 5 5 8 6 6 6 2 1 2 3 4 4 4 4 4 4 2 2 4 6 4 4 4 3 1 3 1 2 1 4 4 4 3 4 7 5 12 10 5 6 7 11 11 11 11 12 12 13 13 13 14 14 13 14 14 14 15 14 14 16 16 15 14 14
7 6 7 9 9 8 9 11 9 7 9 9 10 8 8 6 7 6 6 6 7 8 7 7 5 6 4 5 4 4 5 4 3 3 3 3 4 3 3 5 6 3 4 2 2 2 2 3 2 2 2 2 3 4 3 4 7 9 6 6 5 6 10 13 12 12 11 11 11 11 12 13 13 13 14 14 14 14 15 16 16 16 16 16 16
7 10 8 8 7 10 9 9 10 9 8 10 10 10 9 7 7 7 7 5 4 5 6 6 5 2 2 5 6 6 7 6 5 4 6 5 5 4 6 5 6 5 3 4 3 4 4 4 2 3 2 3 4 5 4 4 10 11 7 7 6 7 12 14 13 13 12 12 11 10 12 13 13 13 13 14 13 13 14 15 16 16 17 17 17
12 8 4 7 7 9 8 9 9 9 8 9 8 8 8 7 6 6 8 6 5 5 5 5 6 5 5 7 6 3 3 3 2 3 5 6 5 6 5 5 6 6 6 5 2 4 5 5 5 3 4 5 3 5 4 2 8 11 6 4 6 11 16 13 15 13 13 13 11 11 11 13 13 13 13 12 12 12 12 12 14 15 17 18 18
11 10 7 9 9 12 11 12 13 12 12 11 10 9 9 8 8 8 7 6 6 6 7 8 8 7 10 11 5 4 3 0 2 3 3 3 4 6 7 7 6 5 5 3 2 2 3 4 5 5 4 4 3 4 5 3 7 12 5 3 1 5 9 6 13 13 13 13 13 12 13 12 13 13 13 13 12 11 11 11 12 13 15 17 17
11 10 10 12 13 10 11 12 13 11 10 10 10 9 9 9 9 7 6 7 7 7 6 8 9 7 6 6 5 4 3 3 4 4 4 3 4 1 2 4 5 2 3 3 2 3 3 2 4 4 5 4 3 4 3 5 5 5 6 3 5 5 6 6 7 13 14 14 15 15 15 15 14 14 14 14 14 14 13 12 13 13 14 15 16
7 9 9 10 10 12 13 10 12 12 11 10 11 9 9 9 11 11 9 8 8 8 7 7 7 8 7 8 5 7 7 6 7 9 6 5 4 3 2 3 7 6 3 5 5 5 4 2 3 1 3 3 5 4 4 3 6 5 6 6 5 6 7 7 7 8 17 16 17 17 16 16 15 15 14 14 14 14 13 13 13 13 13 14 14
10 12 6 2 3 2 3 9 12 12 10 12 12 11 11 11 12 12 11 9 9 9 9 9 10 9 7 7 7 7 8 10 9 8 6 6 5 3 6 6 5 6 5 6 6 4 4 3 2 2 5 6 6 7 7 5 4 6 5 3 3 3 4 5 4 4 15 19 17 16 16 16 15 15 15 14 14 14 14 14 13 13 13 13 13
8 10 6 6 6 5 3 1 3 9 11 11 13 13 11 11 11 10 9 9 10 10 11 11 12 11 10 7 8 9 8 6 7 7 6 6 6 7 5 11 9 9 4 3 3 3 2 1 2 2 2 2 1 0 1 1 2 3 5 5 6 4 3 3 4 6 10 18 18 17 16 16 15 15 15 15 15 14 14 14 14 13 13 14 13
5 5 5 6 6 4 4 5 6 7 10 10 9 11 10 9 10 12 11 9 11 11 12 10 11 10 10 10 8 8 8 8 8 7 5 6 8 8 14 10 7 5 5 4 2 2 2 4 2 2 2 2 2 2 1 3 2 3 3 3 3 3 4 4 5 7 5 16 18 19 17 17 17 16 16 16 16 15 15 15 15 15 14 15 15
9 9 8 6 6 6 5 6 7 8 9 11 11 12 11 10 10 9 9 8 9 11 12 11 11 10 10 10 9 9 10 9 9 5 5 7 8 7 7 6 7 7 6 4 4 4 4 4 4 2 2 2 1 2 2 3 3 3 3 3 3 3 3 4 3 4 5 4 4 7 10 11 14 16 17 16 16 17 17 16 16 16 16 16 16
8 8 9 9 7 8 9 7 9 8 9 11 8 11 11 12 12 11 11 10 9 10 10 10 11 10 11 11 10 10 9 9 9 8 7 7 7 6 5 3 3 3 4 3 2 3 3 2 2 3 4 3 3 3 3 3 4 4 5 3 4 2 2 3 4 4 4 3 8 12 11 12 14 13 15 17 17 18 17 17 17 17 16 17 16
9 10 10 10 9 8 9 10 8 9 7 6 7 9 11 12 12 12 12 12 12 12 11 11 11 12 11 12 12 10 9 7 9 8 7 6 5 6 6 5 5 3 3 3 2 2 3 4 4 4 5 5 3 4 4 3 3 3 4 4 5 3 5 3 3 3 2 4 5 4 7 9 9 12 12 12 15 16 16 16 17 16 17 17 17
7 9 11 12 12 11 10 11 11 9 9 8 7 10 12 12 12 12 11 11 10 10 10 11 11 11 11 10 11 8 8 11 11 9 9 10 8 6 4 3 3 4 3 2 1 2 3 2 3 2 2 3 2 3 3 3 4 5 3 4 5 6 5 5 5 4 2 3 2 4 2 3 5 5 6 7 9 13 15 17 14 17 18 17 17
9 10 11 12 12 12 12 12 12 9 8 7 9 13 14 10 9 8 8 8 9 8 7 8 10 10 11 11 10 13 12 13 14 14 15 7 2 2 1 1 2 2 3 4 4 2 2 3 3 3 4 5 5 5 6 6 6 4 6 5 5 4 3 5 4 3 1 0 0 2 3 1 1 3 4 6 7 8 8 9 9 11 15 19 20
10 10 11 12 12 11 12 11 12 12 10 8 13 11 12 15 11 9 8 6 5 5 7 8 8 9 10 10 7 8 8 9 9 14 15 11 6 3 3 3 2 2 2 4 2 2 2 3 3 4 5 6 5 5 5 5 3 4 4 3 5 4 4 4 4 1 1 2 2 1 4 1 1 5 5 6 7 6 7 9 13 16 18 19 20
10 11 13 14 14 12 12 13 13 13 12 14 13 12 11 11 10 8 8 7 7 7 7 7 7 7 6 7 8 6 5 7 7 7 9 9 7 5 3 3 4 3 2 0 1 1 3 4 4 5 4 5 4 3 3 3 2 2 2 2 1 1 2 2 2 2 1 0 1 2 6 2 1 4 6 7 7 8 9 11 13 15 18 19 20
7 9 10 10 11 11 11 13 14 11 12 11 11 15 13 11 8 4 7 8 8 8 8 7 3 2 4 6 6 6 9 13 10 6 3 3 5 7 7 7 6 5 5 6 5 5 3 5 4 5 4 3 4 3 2 2 2 4 3 3 2 2 2 2 2 1 3 3 2 3 6 4 3 5 8 9 8 8 11 12 15 16 15 18 19
5 5 7 10 10 10 9 9 8 8 9 10 12 14 14 12 10 6 1 3 4 3 3 3 2 1 2 3 2 3 3 2 2 3 3 3 4 5 5 4 4 7 8 8 10 10 7 6 6 8 6 4 7 4 3 3 3 3 3 4 1 1 3 4 3 5 3 4 4 3 7 7 5 7 9 8 7 7 8 12 16 17 15 14 16
5 5 5 7 7 8 8 8 7 6 6 11 11 13 12 11 9 5 2 2 3 3 2 2 2 1 1 2 2 2 2 2 4 5 5 6 5 3 4 4 4 5 8 10 10 8 6 7 8 9 9 8 8 9 7 6 7 4 2 1 3 3 3 3 5 5 7 7 8 6 9 9 4 6 9 8 7 9 9 12 17 20 20 18 16
2 3 5 6 8 8 10 9 7 9 9 12 13 13 11 10 9 4 3 4 3 3 3 3 2 1 1 1 3 3 2 1 3 6 7 4 3 2 3 1 1 2 3 5 8 9 10 9 6 5 5 6 5 4 3 3 3 3 3 3 2 2 2 4 7 6 7 5 9 9 8 9 4 6 9 6 7 9 8 7 11 14 15 15 15
1 1 3 4 3 5 5 6 8 8 8 12 14 13 11 11 8 5 5 5 5 5 4 3 3 3 3 2 1 2 2 2 2 3 6 6 4 2 2 2 2 3 5 4 5 8 9 14 16 9 7 8 9 10 10 8 6 3 3 5 7 4 5 8 8 7 9 6 6 9 7 9 6 6 8 8 8 9 9 9 8 12 15 17 18
1 2 1 2 2 3 7 5 2 2 2 5 3 5 7 11 9 6 5 5 6 5 4 3 3 3 3 6 4 3 3 2 4 3 4 4 2 2 3 3 5 5 5 4 5 5 10 13 11 8 6 6 7 9 10 11 10 4 5 9 8 5 8 7 9 8 9 9 6 5 3 10 7 4 7 7 7 7 8 7 9 11 14 12 14
1 2 3 2 3 3 3 6 10 5 2 2 4 5 6 9 7 4 4 5 5 5 4 2 1 2 2 3 5 4 4 2 4 5 7 6 4 4 4 5 6 6 6 4 5 4 4 5 6 5 4 4 4 4 5 8 10 7 7 8 7 7 9 8 8 8 10 11 6 7 7 10 8 6 7 2 5 8 7 6 7 8 9 9 9
Wind_Direction
166 180 186 186 177 174 170 183 190 193 183 198 202 196 194 202 218 213 218 221 232 219 215 219 210 211 213 214 210 218 178 226 241 212 150 143 154 168 167 161 161 167 174 181 182 184 186 185 184 194 201 218 225 252 306 326 343 334 348 348 4 20 48 65 66 70 74 75 86 94 87 87 84 86 91 90 72 68 81 87 90 108 123 125 127
172 182 190 178 178 167 170 183 179 189 196 193 198 194 194 199 211 216 213 218 236 232 200 221 218 202 204 223 217 209 170 210 224 201 161 154 146 161 168 162 161 170 176 184 187 188 189 190 188 191 205 207 223 256 277 292 314 330 334 344 336 352 21 69 63 72 79 86 99 104 99 97 92 89 91 99 93 115 89 85 99 105 116 131 131
185 189 198 174 172 165 168 181 172 190 211 207 190 196 204 202 202 202 222 213 223 239 213 231 242 183 189 221 232 213 197 204 204 171 144 135 134 150 168 166 163 171 178 184 191 192 193 194 193 196 203 211 219 239 256 275 283 304 315 319 323 302 356 67 82 79 83 95 103 111 107 107 100 96 98 99 82 75 73 93 100 115 115 124 140
198 176 181 168 166 161 176 185 184 187 200 204 191 197 210 210 201 184 217 219 226 247 232 234 234 196 202 215 217 148 230 159 92 45 105 129 136 144 150 168 170 170 179 185 191 198 198 198 201 200 206 212 221 229 244 258 269 275 288 288 276 285 282 150 117 112 98 110 109 116 114 115 109 105 100 95 95 99 96 58 109 95 114 126 135
198 175 173 167 165 168 188 187 184 179 195 194 198 198 205 203 196 192 216 226 230 236 224 221 222 187 225 206 275 232 111 88 359 122 185 128 144 141 150 158 171 176 180 185 193 200 205 206 206 208 211 216 226 234 243 250 261 260 261 268 276 267 272 274 248 145 137 122 129 127 118 118 123 114 105 96 88 98 102 89 86 112 114 133 131
220 166 169 171 164 175 180 182 187 186 166 181 212 203 189 194 201 200 213 216 220 233 192 222 183 203 211 178 196 234 99 101 51 159 258 156 142 141 143 148 157 172 187 190 193 200 205 209 211 214 214 219 228 239 245 252 252 256 256 262 270 274 261 255 233 180 159 167 139 135 134 124 130 125 116 101 103 96 101 115 149 119 110 121 131
227 160 192 166 160 174 166 176 185 176 158 196 207 187 191 190 195 205 201 213 211 213 190 219 215 207 203 251 169 154 129 114 188 76 288 26 94 113 144 147 158 176 178 172 202 202 204 206 212 214 216 220 226 235 244 247 249 247 253 263 265 261 261 257 224 199 194 185 170 155 148 138 139 135 126 119 110 101 104 109 128 191 122 108 115
174 195 174 164 155 164 159 182 193 170 190 183 195 184 190 198 197 209 189 209 210 192 203 180 231 161 219 133 184 58 10 66 357 76 37 10 9 27 56 134 140 168 149 173 175 202 206 208 209 213 217 221 226 233 239 244 248 250 252 250 256 257 257 250 241 212 195 193 202 178 164 154 152 150 134 132 122 112 107 99 107 145 135 118 108
171 196 194 161 157 162 162 185 193 176 204 170 195 189 194 194 196 219 187 214 200 186 201 213 205 216 144 199 144 130 68 40 68 8 103 92 259 23 326 10 130 157 182 112 157 173 197 205 211 214 218 222 224 230 234 238 243 247 248 249 248 250 248 243 242 221 203 207 207 193 174 160 163 158 152 141 139 121 115 115 128 138 149 157 164
175 184 200 181 162 170 180 184 190 165 210 166 195 202 202 198 188 226 175 204 244 204 197 221 203 190 194 176 163 148 146 157 111 74 88 167 143 163 112 221 340 107 257 158 147 173 180 197 207 217 221 224 227 228 232 234 239 244 246 247 244 243 242 241 240 228 206 211 211 201 191 178 168 168 160 160 149 125 131 106 109 119 126 130 147
180 181 185 184 173 161 199 186 142 167 222 178 211 203 210 167 181 210 289 188 199 267 1 293 203 197 206 177 182 137 129 111 117 151 192 151 117 136 133 89 94 314 108 91 221 191 197 148 183 204 220 223 224 225 227 230 233 237 242 242 242 238 237 240 238 230 216 214 216 205 199 185 173 170 169 163 167 143 122 142 123 103 111 116 129
191 179 180 166 198 178 191 166 163 187 200 198 207 187 219 146 185 159 233 341 315 344 251 319 282 252 184 193 143 149 106 97 108 125 140 105 92 96 105 139 75 298 346 152 261 195 206 168 177 194 211 209 215 220 222 226 229 231 234 238 239 236 234 232 232 226 217 214 216 213 200 193 181 176 175 171 172 173 156 140 145 148 129 155 72
190 181 173 181 197 188 178 187 175 203 202 207 205 180 198 118 50 69 173 177 219 343 328 341 349 322 332 267 136 186 129 132 121 119 112 91 96 112 94 159 110 214 289 168 205 216 182 175 193 199 197 184 197 216 221 223 226 231 233 235 235 235 230 226 224 222 213 209 212 214 205 199 191 179 182 174 175 181 178 163 155 162 157 151 169
184 178 173 180 191 189 194 184 192 203 209 211 191 121 99 224 114 65 235 197 134 246 234 239 127 248 146 232 39 338 146 125 130 124 132 122 120 115 145 156 158 278 262 30 261 243 199 191 203 181 176 151 197 168 204 218 224 227 229 230 231 231 227 225 221 217 209 206 208 207 206 200 195 183 183 182 178 183 184 178 166 159 162 165 166
183 180 174 186 186 187 195 188 199 200 205 203 106 112 126 173 141 155 187 217 173 217 257 249 196 345 288 209 122 245 99 63 108 113 132 123 169 144 167 194 207 193 218 220 209 247 214 161 219 174 152 188 205 148 182 197 215 222 223 225 227 223 221 218 218 215 209 207 204 203 204 203 199 190 186 187 185 185 186 183 178 170 170 179 168
184 183 179 178 186 194 200 182 201 198 190 125 130 139 145 205 173 179 188 160 185 242 291 293 199 113 263 91 73 87 173 144 114 121 111 116 172 181 174 196 214 195 207 215 211 221 230 176 210 187 181 175 211 167 178 205 213 219 215 219 219 221 219 216 214 212 209 205 203 200 203 203 202 197 192 191 192 191 190 188 183 180 180 179 185
186 184 183 181 196 200 198 182 197 182 149 145 159 169 171 176 186 161 137 198 139 105 295 292 223 142 128 111 93 42 238 157 124 146 161 158 197 220 213 187 211 200 200 221 228 245 209 212 198 147 185 223 166 170 160 215 170 201 201 212 216 218 217 215 213 210 208 205 203 201 201 203 202 200 196 194 198 197 196 197 190 186 187 193 191
185 187 189 186 194 208 201 182 190 152 165 178 176 179 170 177 184 166 158 160 179 221 218 246 208 127 172 122 189 168 172 150 110 176 45 57 209 202 200 207 225 180 210 202 228 222 207 162 164 173 195 227 163 148 159 217 196 167 159 201 210 211 214 211 210 209 209 206 203 202 201 203 204 207 198 199 199 199 199 202 200 193 195 194 195
181 191 186 191 191 202 208 190 181 160 171 176 178 184 181 187 161 173 174 152 164 244 237 310 50 119 188 210 199 229 155 125 211 137 205 209 225 214 212 208 267 218 223 242 214 200 204 198 191 190 214 190 151 134 178 193 202 197 189 179 192 202 205 207 208 207 205 204 203 200 201 201 205 207 204 204 201 203 203 201 201 198 197 199 202
182 187 189 187 189 197 208 209 176 168 171 186 181 192 172 180 144 170 111 126 168 175 8 37 172 27 272 230 218 176 222 209 216 195 143 141 185 196 223 116 119 221 207 235 239 170 206 168 171 197 207 181 138 158 193 190 213 203 183 167 189 196 195 200 205 206 203 203 201 200 199 202 205 206 209 204 204 208 207 205 203 201 200 203 204
180 187 191 181 184 197 202 215 174 174 169 191 186 190 188 156 154 156 143 167 191 184 127 194 207 135 112 253 233 139 237 269 226 109 164 173 185 175 176 132 152 191 262 310 354 20 116 171 159 200 226 145 154 177 163 195 210 206 173 175 188 188 190 194 202 203 206 203 203 203 203 204 208 209 206 207 207 208 211 209 209 205 203 201 203
189 186 192 182 184 196 196 209 184 176 188 183 199 177 209 140 164 175 176 180 167 181 199 169 116 168 183 140 97 228 212 225 258 185 104 87 138 174 148 163 136 205 172 344 58 7 310 230 173 238 218 140 173 203 185 194 205 189 177 180 186 185 187 194 197 201 205 206 206 206 209 207 209 208 207 209 209 212 212 214 212 213 209 206 202
191 192 190 192 189 192 197 201 198 167 187 190 199 184 198 159 171 176 173 174 165 192 215 205 170 197 180 190 174 193 217 185 239 231 149 183 107 267 160 157 210 102 19 33 41 183 266 269 150 210 302 198 172 191 194 206 204 180 154 179 182 187 189 192 194 198 201 206 206 206 208 207 208 208 210 212 213 213 214 212 216 215 216 212 208
182 192 193 196 190 190 199 196 205 167 177 188 198 188 188 173 174 153 180 182 180 192 190 235 201 149 244 219 203 215 198 208 205 202 215 169 159 164 322 129 186 123 141 148 220 180 205 225 172 198 183 217 195 187 183 192 170 147 159 176 183 187 192 193 198 196 200 205 207 208 208 210 210 211 214 216 215 214 215 216 216 218 219 220 218
191 196 194 197 188 190 199 193 192 155 172 175 180 158 130 186 169 174 188 176 183 188 191 207 217 120 146 262 270 214 226 183 243 233 149 98 117 121 11 35 123 11 93 180 209 202 211 202 197 195 182 193 190 189 174 142 153 164 173 177 188 185 187 196 202 202 205 207 210 213 212 213 214 214 216 216 217 215 218 216 216 218 217 219 224
203 201 200 197 196 192 201 202 180 155 168 175 142 158 152 167 200 185 199 183 182 190 188 218 216 142 160 218 247 357 311 189 198 171 229 158 177 170 143 275 141 195 205 200 239 145 201 198 228 187 148 171 195 174 193 151 157 180 185 169 196 187 187 197 200 206 208 210 212 216 217 218 220 221 223 222 219 219 219 218 216 216 214 218 220
207 203 190 203 203 187 192 210 182 163 171 169 158 159 158 178 239 210 209 166 194 179 192 227 207 160 198 218 184 205 198 239 175 213 261 188 168 173 160 155 149 216 230 240 240 192 179 255 64 160 153 180 188 159 133 163 167 179 197 170 179 190 191 196 201 207 211 212 213 217 220 221 221 223 224 225 223 221 221 220 220 221 216 217 216
225 205 190 200 204 191 187 203 203 173 170 175 163 172 177 185 206 229 209 187 188 191 202 220 216 193 171 146 226 161 251 207 197 184 240 79 119 145 191 159 157 186 211 217 197 211 196 233 291 229 174 168 177 162 153 169 160 178 186 202 167 183 195 195 198 206 211 215 216 218 222 224 226 224 227 229 228 226 223 222 225 225 225 223 223
229 225 215 200 195 195 192 199 204 193 176 171 171 161 172 186 197 211 219 201 180 197 206 226 206 203 159 214 218 188 237 227 225 206 116 144 145 171 221 196 205 176 185 188 243 137 260 208 191 256 163 198 166 148 181 185 171 171 189 216 170 179 192 197 201 203 206 215 216 218 222 224 228 227 230 233 235 233 229 227 228 229 229 229 228
253 230 215 215 196 192 200 196 195 202 195 186 181 161 169 181 192 197 205 215 168 186 201 218 214 154 121 226 223 203 219 193 207 189 158 182 178 175 222 228 208 190 170 180 207 221 208 245 225 197 230 229 159 172 166 231 165 181 192 205 177 185 181 195 200 203 203 206 212 218 221 226 228 230 231 234 237 237 236 234 231 230 230 231 231
260 242 236 220 212 200 195 192 194 196 199 198 185 164 167 173 193 195 200 195 179 193 193 212 215 172 164 237 209 233 260 226 103 249 184 182 193 198 206 238 216 199 177 180 194 237 181 198 227 216 185 217 203 172 181 176 172 194 224 213 188 186 181 193 197 203 203 204 205 211 218 223 228 229 233 235 234 234 237 234 232 234 234 235 234
239 221 186 241 227 211 203 199 202 204 199 202 194 176 169 180 193 199 194 182 192 190 199 202 214 201 182 209 187 201 223 47 234 238 253 246 217 194 214 217 233 173 179 149 175 260 248 184 191 196 203 200 221 183 186 173 172 202 240 267 63 160 172 183 198 200 203 206 207 209 212 220 224 228 230 232 233 239 236 234 233 233 237 240 240
241 236 207 207 217 217 209 202 208 194 198 200 200 189 182 184 183 198 191 188 194 201 199 206 212 213 205 208 185 184 184 207 219 202 221 233 265 331 26 295 262 213 149 176 185 247 276 289 165 205 179 196 190 226 161 180 177 203 237 244 151 160 171 183 191 204 206 208 209 210 212 214 217 222 226 227 229 231 234 236 235 233 233 238 243
227 254 236 236 217 198 213 209 215 205 191 196 199 191 194 187 195 201 191 175 188 203 196 206 216 228 186 193 192 195 186 210 225 221 177 207 250 275 189 226 271 258 192 174 199 199 248 243 263 181 180 198 198 215 204 174 157 197 205 222 177 188 188 196 193 197 205 210 211 210 211 213 214 218 220 225 227 228 230 233 237 237 235 233 236
215 221 218 185 287 317 252 207 204 209 201 188 195 198 197 197 197 200 200 182 188 200 204 204 212 226 216 189 204 211 209 213 212 217 210 193 185 174 258 271 250 251 229 190 185 194 213 237 211 235 185 207 211 186 206 180 193 182 208 237 246 219 227 221 222 217 193 213 211 212 213 212 215 216 219 221 224 226 229 232 233 235 237 237 237
228 223 163 213 235 230 224 291 263 220 211 202 197 201 201 194 196 204 197 177 190 200 209 209 212 213 224 215 207 214 218 215 223 216 196 209 192 167 226 243 244 245 299 257 190 171 183 251 279 274 335 6 324 351 125 144 179 191 208 216 211 229 232 249 251 251 191 200 207 212 213 215 216 217 218 219 221 223 227 228 230 231 232 235 237
243 233 197 193 201 189 189 214 225 236 210 205 200 198 200 201 201 205 207 191 192 197 206 215 213 213 213 219 208 209 218 222 229 233 217 219 230 189 202 204 213 208 211 223 163 178 184 206 240 271 294 292 293 292 251 276 270 253 224 228 226 241 233 225 254 269 207 193 200 207 210 213 215 217 218 219 220 222 224 225 226 228 229 230 232
215 225 219 202 200 189 199 210 217 234 234 213 188 192 192 197 205 209 205 207 199 197 206 213 218 218 218 214 219 211 216 219 231 225 218 220 229 236 242 216 190 192 213 219 198 178 195 204 196 221 214 239 284 269 265 239 233 249 264 252 246 256 244 240 259 273 285 151 194 207 217 219 224 223 221 220 220 221 223 224 224 225 227 228 229
216 222 222 214 194 188 202 216 219 224 241 236 199 189 192 199 201 205 201 201 199 204 207 214 218 221 225 218 215 223 216 211 222 229 228 240 244 237 249 262 267 212 204 204 200 191 193 208 222 222 241 235 224 259 259 261 257 242 248 270 274 264 277 277 264 244 261 256 190 192 195 200 213 215 222 223 223 223 225 226 227 228 229 230 229
216 222 223 221 212 197 196 204 205 214 239 258 219 201 195 198 201 208 202 197 198 206 208 209 214 220 225 225 221 214 218 210 220 220 227 239 238 228 222 206 212 205 235 243 226 223 206 210 217 231 212 224 226 224 231 228 240 247 221 218 232 229 237 230 241 260 241 233 264 234 214 212 221 224 229 232 234 234 233 233 234 233 233 232 230
219 223 227 224 225 211 202 207 209 209 219 233 238 207 189 194 197 194 204 200 198 203 206 207 211 217 225 227 229 229 217 217 208 216 228 234 238 227 212 234 211 201 203 218 252 246 250 247 258 251 269 265 242 236 246 236 229 230 216 212 232 228 227 237 237 227 220 251 270 269 251 171 211 210 213 225 229 228 237 235 240 238 238 238 236
215 217 222 226 224 218 212 209 210 207 216 225 221 223 197 179 184 184 191 197 194 202 208 216 220 213 215 226 228 228 234 226 219 223 236 235 137 294 77 322 265 200 182 186 200 212 233 241 239 247 251 247 247 236 232 234 236 245 255 251 255 251 236 235 241 209 163 122 43 276 267 258 157 225 231 230 235 215 230 221 221 226 232 231 233
230 222 219 221 222 221 219 213 202 199 205 223 215 219 195 189 185 188 190 192 194 194 201 208 218 220 219 210 220 233 242 253 231 222 221 229 224 195 161 154 47 345 199 180 181 209 241 246 247 246 248 254 255 262 264 271 255 245 228 209 219 221 222 234 255 277 41 117 195 229 271 217 199 256 252 246 246 247 239 236 221 221 232 235 232
251 228 222 221 222 221 220 221 217 197 202 231 212 205 200 191 190 187 192 194 200 211 218 222 215 225 234 229 208 206 210 228 239 231 229 224 221 227 220 163 172 252 300 158 159 199 221 235 241 244 256 261 270 272 282 283 291 303 312 322 283 285 273 261 251 230 147 273 160 230 266 250 200 236 258 252 248 245 246 243 233 227 229 234 235
274 243 215 213 215 215 214 215 216 196 181 211 219 191 200 195 200 210 197 198 202 201 206 212 226 234 232 228 229 208 218 208 216 228 219 200 212 223 231 244 244 221 245 263 233 227 272 274 269 268 257 274 273 267 288 309 351 306 318 309 319 336 360 315 307 267 238 191 150 223 256 246 179 242 254 255 248 248 254 251 250 253 242 234 234
273 248 204 212 209 209 212 217 205 178 171 191 238 208 194 191 198 205 352 206 143 121 128 139 176 296 333 323 247 228 240 235 200 203 238 235 206 204 220 227 241 259 249 236 249 255 251 254 258 261 263 264 266 271 289 313 314 294 291 273 297 273 258 251 259 271 251 169 225 256 270 255 220 248 254 256 246 256 256 254 256 255 239 225 231
268 246 227 220 213 205 210 208 186 187 173 176 226 223 186 181 183 187 212 228 164 150 165 155 157 144 15 290 269 246 98 85 99 87 73 58 51 55 60 17 346 343 327 318 318 303 263 237 242 251 259 264 272 278 280 279 274 272 282 209 186 207 243 267 277 259 260 229 235 223 260 264 196 231 251 252 243 244 241 242 239 246 250 243 229
277 270 241 233 217 204 201 198 198 200 191 196 219 226 186 175 162 177 200 220 229 207 187 169 172 150 201 58 21 35 55 76 64 88 102 105 106 117 140 162 312 308 246 203 232 272 298 312 288 264 256 269 287 277 298 319 320 309 298 115 117 157 231 263 270 273 267 232 200 210 247 263 209 231 261 256 251 252 246 248 244 237 237 239 240
215 19 302 245 194 185 199 190 184 190 195 190 210 217 186 163 155 181 196 209 219 225 225 201 173 181 152 127 162 211 160 197 158 100 101 100 109 125 124 128 194 211 255 295 267 265 287 284 274 272 285 300 306 309 307 288 261 284 326 294 260 227 242 267 267 264 263 254 222 203 233 264 237 213 258 263 252 259 261 258 258 248 239 240 241
184 140 93 66 74 142 149 133 146 167 147 119 172 224 166 157 171 174 188 199 211 214 209 214 116 128 167 190 206 208 202 212 125 136 95 103 129 168 185 200 232 241 245 243 260 220 242 256 249 240 242 254 266 267 267 270 271 238 218 249 258 244 253 248 263 263 269 260 239 176 223 253 265 229 255 269 269 253 255 256 258 261 258 247 240
119 135 145 119 95 65 81 136 169 177 197 148 162 199 202 182 182 184 181 196 204 204 185 124 163 141 163 173 200 211 220 207 129 168 164 173 181 190 172 192 222 233 230 230 254 258 247 254 255 269 266 219 220 238 249 255 259 241 225 246 261 251 259 259 258 270 274 265 233 171 221 257 258 254 245 328 308 286 282 279 271 268 261 260 258